Location: Unspecified
(64.9000°N, 0.0000°E)
Time: 01:50:27
(UTC+00:00)

Altair - Pass Details

Date: 25 June 2019
Orbit: 1501 x 1683 km, 47.2° (Epoch: 14 October)

Event Time Altitude Azimuth Distance (km) Brightness Sun altitude
Rises 21:19:47 0° 239° (WSW) 4,742 10.2 3.7°
Reaches altitude 10° 21:23:23 10° 228° (SW) 3,786 9.5 3.5°
Maximum altitude 21:30:58 27° 176° (S) 2,723 8.4 3.0°
Drops below altitude 10° 21:38:45 10° 124° (ESE) 3,898 9.1 2.5°
Sets 21:42:32 0° 113° (ESE) 4,906 9.6 2.3°
